Flag for West Bank Weather past 2 weeks in Tulkarm, West Bank

Now
81 °F

Passing clouds.


Feels Like: 85 °F
Forecast: 74 / 92 °F
Wind: 6 mph from South

Location: Dov Airport

Current Time: Jul 30, 2014 at 2:20:39 AM

Latest Report: Jul 30, 2014 at 1:50 AM


Visibility: N/A

Pressure: 29.71 "Hg

Humidity: 79%

Dew point: 73 °F

Location of TulkarmLocation

Historic Weather in Tulkarm — Graph

°F

Tulkarm temperature yesterday

Maximum temperature yesterday: 88 °F (at 10:50 AM)
Minimum temperature yesterday: 79 °F (at 5:50 AM)
Average temperature yesterday: 84 °F

Past Weeks' High & Low Weather Summary

 TemperatureHumidityPressure
High88 °F (Jul 24, 2:50 PM)89% (Jul 24, 6:50 AM)29.89 "Hg (Jul 24, 6:50 AM)
Low77 °F (Jul 15, 6:50 AM)55% (Jul 15, 10:50 AM)29.71 "Hg (Jul 15, 5:50 AM)
Average83 °F68%29.77 "Hg
* Reported Jul 15 5:50 AM — Jul 30 12:50 AM, Tulkarm, Weather by CustomWeather, © 2014

Note: Actual official high and low records may vary slightly from our data, if they occured in-between our weather recording intervals... More about our weather records

Advertising

Tulkarm weather history for previous 24 hours

 ConditionsComfort  
Time TempWeatherWind HumidityBarometerVisibility
12:50 AM
Jul 30
81 °FPassing clouds.6 mph79%29.74 "HgN/A
11:50 PM
Jul 29
81 °FPassing clouds.6 mph79%29.74 "HgN/A
10:50 PM81 °FClear.3 mph79%29.74 "Hg10 mi
9:50 PM81 °FPassing clouds.3 mph79%29.74 "HgN/A
8:50 PM82 °FPassing clouds.5 mph74%29.74 "HgN/A
7:50 PM82 °FScattered clouds.5 mph74%29.74 "HgN/A
6:50 PM84 °FScattered clouds.8 mph74%29.74 "HgN/A
5:50 PM86 °FScattered clouds.9 mph70%29.74 "HgN/A
4:50 PM86 °FPassing clouds.12 mph70%29.74 "HgN/A
3:50 PM86 °FPassing clouds.12 mph70%29.74 "HgN/A
2:50 PM86 °FPassing clouds.12 mph70%29.77 "HgN/A
1:50 PM88 °FPassing clouds.13 mph66%29.77 "HgN/A
12:50 PM86 °FPassing clouds.13 mph70%29.77 "HgN/A
11:50 AM86 °FPassing clouds.10 mph66%29.80 "HgN/A
10:50 AM88 °FPassing clouds.9 mph62%29.80 "HgN/A
9:50 AM86 °FScattered clouds.8 mph70%29.80 "HgN/A
8:50 AM82 °FScattered clouds.7 mph74%29.80 "HgN/A
7:50 AM82 °FScattered clouds.6 mph74%29.80 "HgN/A
6:50 AM79 °FPassing clouds.5 mph84%29.80 "HgN/A
5:50 AM79 °FPassing clouds.5 mph79%29.77 "HgN/A
Weather by CustomWeather, © 2014

See weather overviewHow to use our weather pages